GFSSW_925_rhum_276.txt.gz
RH
99 100 99 97 89 80 74 45 29 29 29 28 28 26 24 17 12 25 16 12 14 13 13 17 15 14 11 12 12 32 77 61 30 33 34 25 24 25 40 21 20 23 28 39 36
98 99 98 91 92 80 60 47 29 24 25 26 27 26 23 18 30 15 10 10 8 10 12 10 10 8 10 13 16 44 88 70 27 23 25 23 25 42 47 50 26 32 35 37 33
99 100 96 88 90 75 52 32 27 23 22 24 25 24 22 18 26 7 12 9 6 5 11 11 9 9 12 13 17 55 59 45 28 17 20 31 26 29 51 87 50 34 36 34 32
98 98 99 90 70 65 47 30 24 22 20 22 24 23 19 37 13 14 10 9 5 8 10 12 9 11 12 15 15 21 21 17 18 16 22 33 35 28 25 24 24 28 30 33 32
99 100 100 94 74 50 33 26 23 22 20 20 22 24 32 22 10 10 7 8 8 11 10 11 10 10 12 12 12 17 23 17 15 15 15 24 37 28 54 46 24 27 29 31 31
99 100 100 94 76 42 29 24 20 20 19 20 23 25 44 16 6 9 11 12 9 10 8 9 9 9 10 11 13 13 20 19 14 14 13 15 15 24 66 54 26 29 31 30 29
94 99 93 78 56 38 28 23 19 18 19 21 23 42 23 13 6 6 7 7 8 9 8 10 8 9 9 12 10 11 16 14 16 13 15 15 21 22 40 23 27 29 30 30 31
91 90 83 65 44 31 24 20 19 19 20 23 24 45 20 7 7 6 6 6 8 7 8 8 7 8 9 9 10 12 12 19 19 16 15 15 31 47 45 21 27 26 29 30 30
90 89 83 63 40 29 21 22 24 24 22 24 34 27 14 8 6 6 5 6 6 8 8 8 7 10 10 11 12 12 16 18 22 16 16 17 26 36 42 21 25 28 29 30 33
90 87 72 50 38 29 23 29 32 30 33 41 30 21 15 8 4 3 4 5 5 7 9 9 10 13 12 13 16 18 16 22 18 18 14 13 13 23 22 20 24 27 29 33 36
87 78 53 37 30 32 29 35 34 34 29 14 12 8 6 4 5 4 5 5 5 5 8 9 13 15 12 12 10 11 17 20 15 14 14 13 12 11 10 17 17 27 29 35 34
88 65 39 29 25 30 48 27 20 20 23 16 12 9 6 6 6 6 5 6 6 7 6 6 10 9 10 10 10 11 12 14 12 9 12 12 13 11 10 10 16 14 30 32 32
91 63 35 25 25 32 32 20 22 19 18 11 11 8 7 6 7 5 4 5 6 6 6 6 5 5 6 6 9 10 11 12 12 12 12 12 15 15 11 10 15 11 15 25 32
96 60 34 25 46 30 19 23 21 20 20 10 10 8 6 6 7 4 4 5 5 5 6 6 4 4 4 4 4 10 9 10 11 15 17 11 22 19 16 14 12 10 11 16 27
81 49 31 57 57 26 25 21 22 18 28 9 8 6 6 9 5 5 4 5 6 4 4 5 5 4 4 4 3 6 8 9 10 12 12 12 13 13 17 17 12 12 12 14 24
56 53 39 54 66 29 23 22 20 22 17 9 8 10 8 8 6 5 5 5 4 5 4 5 3 4 4 4 4 4 6 9 10 12 16 12 12 26 69 52 12 12 12 14 17
46 47 59 68 29 25 22 20 24 21 8 9 9 7 7 8 7 6 6 7 7 9 8 6 5 4 4 4 4 4 6 13 16 17 16 10 13 17 18 16 11 12 13 14 14
34 46 55 44 33 28 24 23 29 10 7 8 8 8 8 6 7 6 7 8 6 7 6 7 7 5 4 4 5 4 5 11 19 16 14 11 15 20 15 13 9 8 11 12 12
36 50 48 34 37 27 25 24 16 10 10 9 8 9 9 8 8 7 6 7 5 5 8 7 6 4 4 3 4 5 6 5 7 7 10 18 27 19 19 9 9 8 9 11 11
62 36 22 25 26 25 26 29 17 11 11 11 13 9 9 8 8 8 8 5 6 4 4 6 8 5 4 3 3 4 3 6 5 12 14 15 28 42 23 12 9 9 8 9 10
55 34 23 23 23 23 26 17 13 10 9 10 10 10 10 10 9 8 7 5 4 4 5 5 6 7 4 5 5 4 5 4 4 5 8 11 24 16 24 12 10 8 8 9 11
32 33 23 21 24 20 19 15 34 13 11 11 9 12 13 12 11 11 10 6 4 4 6 5 6 8 6 4 4 4 4 4 6 8 6 7 13 12 14 10 8 8 9 12 14
37 25 25 20 29 24 18 15 15 14 13 13 12 9 10 12 14 12 12 7 6 6 6 6 7 10 8 5 4 5 4 4 3 4 11 10 10 9 14 13 8 8 14 18 16
35 27 24 22 18 21 22 19 20 15 16 14 16 13 11 13 12 14 15 9 8 10 28 15 9 8 8 8 6 6 6 5 4 6 6 6 9 19 14 12 8 8 8 15 19
30 27 22 29 24 20 18 19 21 20 16 16 19 17 17 18 16 14 12 12 16 38 21 13 12 8 7 6 5 5 5 4 5 4 6 6 7 12 20 15 11 7 10 11 15
23 28 20 22 16 18 19 18 19 17 18 18 22 19 16 17 16 16 13 20 45 38 32 25 19 10 9 6 6 6 5 5 5 5 5 5 6 14 16 13 14 9 10 10 12
24 22 22 23 16 15 16 16 16 16 16 17 18 22 26 16 15 18 19 23 45 44 55 59 42 43 15 9 8 9 6 5 5 5 5 6 6 8 14 12 13 18 18 16 15

GFSSW_925_rhum_279.txt.gz
RH
100 100 100 97 89 84 62 44 31 24 22 23 25 25 21 17 12 19 31 14 13 15 12 23 26 23 20 19 16 36 71 78 55 37 34 27 32 32 36 35 37 35 44 44 36
100 100 100 98 88 71 60 38 27 24 22 21 22 24 21 21 26 30 6 12 11 10 12 13 14 14 18 14 30 46 75 64 42 26 28 32 45 43 46 44 44 45 41 37 35
100 100 100 94 84 56 38 32 24 22 21 21 20 21 20 24 50 15 8 8 10 7 7 11 12 13 12 12 38 46 47 37 36 26 30 38 41 41 48 53 42 50 46 38 34
100 100 97 83 65 46 33 28 24 22 20 20 20 21 18 36 22 12 12 11 9 6 9 10 12 15 14 15 31 39 36 33 30 25 23 28 45 60 54 56 48 39 39 38 35
98 100 87 72 47 36 30 25 22 20 18 19 20 23 20 38 23 10 8 9 8 6 10 12 15 15 15 12 20 35 29 20 18 17 17 28 39 50 52 64 42 37 36 37 36
93 99 75 49 39 34 28 23 20 18 17 18 21 23 52 28 9 8 7 11 7 12 9 9 12 12 13 12 14 15 20 19 17 17 16 30 36 36 48 46 43 35 38 36 36
86 80 70 53 39 31 25 20 18 18 18 20 22 33 36 26 8 9 7 9 9 10 11 9 9 12 12 12 12 14 16 19 17 16 16 36 47 52 57 43 53 56 35 36 36
84 79 66 49 38 29 21 17 17 18 20 21 24 52 44 8 9 8 8 6 6 7 8 9 10 10 10 10 12 15 14 21 20 18 17 18 42 52 50 43 60 59 40 35 39
86 79 61 44 33 26 20 19 20 21 21 24 31 44 28 9 8 7 6 6 6 7 8 7 8 10 11 16 21 16 22 21 24 19 19 20 30 40 53 54 76 65 52 39 43
85 76 56 42 31 24 21 20 26 29 38 46 38 33 26 15 7 6 6 5 6 6 10 12 13 16 18 18 29 24 22 23 24 22 20 24 22 27 32 52 60 52 48 47 45
82 67 46 34 28 27 25 29 45 45 30 28 21 19 9 11 7 4 4 4 6 7 10 12 19 23 20 16 14 15 17 24 23 20 20 18 15 24 32 36 50 55 49 46 44
78 51 36 28 24 27 38 50 23 20 28 23 25 20 12 9 6 6 5 6 8 10 9 10 14 13 12 12 13 14 15 16 19 15 18 18 17 14 16 29 35 48 47 42 45
63 40 31 23 22 30 33 28 21 19 27 17 14 18 14 7 8 8 7 8 9 10 9 11 9 7 9 10 11 12 13 14 15 14 13 16 22 20 16 18 27 30 35 41 42
52 36 28 23 35 39 30 22 19 19 35 17 12 14 12 8 9 6 5 6 7 9 8 8 7 6 6 8 7 7 5 8 12 16 25 17 31 27 22 18 27 26 46 39 40
41 35 27 45 49 47 25 20 20 20 44 11 11 7 8 9 8 7 5 6 8 8 7 8 8 7 7 6 5 6 5 6 10 15 18 17 20 33 29 28 29 24 31 37 39
40 36 28 60 65 25 22 21 21 35 33 11 10 10 8 9 10 7 6 6 6 8 7 6 5 5 6 5 5 4 5 8 10 18 29 22 20 31 38 31 26 20 22 36 37
33 37 40 60 46 30 24 24 38 36 12 10 13 10 12 11 11 9 7 8 11 11 11 8 7 6 5 6 5 6 6 16 22 25 30 19 19 23 35 27 21 19 27 33 33
26 31 39 37 32 35 29 36 44 20 11 9 8 8 10 9 10 8 9 10 9 9 10 13 12 7 6 6 7 7 7 16 22 30 22 16 28 30 28 28 23 17 21 23 28
29 46 48 28 29 31 37 43 27 17 12 12 12 10 11 9 9 9 9 10 9 8 11 12 12 7 5 4 6 7 9 8 8 8 14 19 21 22 21 22 22 20 18 18 19
42 45 39 33 29 29 40 40 27 18 11 12 16 13 15 12 10 11 12 8 7 7 7 9 12 7 6 5 5 6 7 9 12 14 18 15 34 34 21 18 22 20 17 17 16
58 49 22 23 24 34 43 29 19 13 10 11 13 13 14 16 15 14 11 9 7 6 7 7 9 9 8 8 7 7 8 7 8 11 16 17 26 27 29 25 23 18 15 18 18
43 47 21 21 37 33 32 22 18 15 13 14 12 12 13 13 16 17 15 12 7 6 8 7 8 12 11 8 6 6 8 8 14 13 15 16 16 20 21 19 18 17 20 22 20
55 40 22 20 37 30 26 22 19 16 15 15 15 14 11 13 18 17 14 10 10 7 9 15 20 21 14 10 8 7 7 7 7 8 9 15 18 22 19 22 16 17 23 24 22
58 47 34 31 28 24 25 24 21 15 16 16 19 16 21 20 16 20 16 12 21 33 56 18 16 20 23 16 12 11 9 7 8 10 11 10 12 19 18 21 21 17 16 28 27
49 43 25 37 31 25 22 26 22 22 18 18 20 20 21 26 24 23 17 15 27 36 30 28 29 24 18 12 9 8 8 7 9 8 10 8 10 26 23 26 23 18 25 29 29
47 39 30 30 21 21 20 24 19 17 19 20 23 18 23 26 24 24 19 34 45 38 38 37 40 51 42 24 14 14 8 8 7 8 8 8 8 27 26 24 18 20 19 27 32
36 29 36 32 25 23 22 21 16 17 17 15 18 22 26 23 24 23 23 23 42 36 46 54 54 54 54 40 42 37 12 10 9 8 8 9 11 29 22 20 19 19 25 26 25

GFSSW_925_rhum_285.txt.gz
RH
99 100 100 100 89 77 48 32 27 24 22 21 18 18 18 14 12 16 22 6 10 13 28 30 38 34 39 35 34 52 62 62 66 61 51 42 37 34 40 49 46 46 56 60 77
99 100 100 96 92 69 46 30 27 24 21 20 18 18 20 15 20 37 4 5 11 14 23 30 32 35 28 27 29 52 72 51 42 38 45 42 42 45 49 52 53 57 59 68 73
100 100 99 92 72 52 39 30 27 23 20 18 17 18 17 16 35 10 12 5 11 15 12 14 14 14 20 22 30 47 46 40 37 36 40 43 47 43 52 57 55 65 68 66 79
97 95 86 69 53 42 35 30 27 21 19 17 17 18 16 33 9 13 10 10 8 14 10 10 13 18 20 20 33 44 38 37 41 39 41 45 42 40 45 47 48 58 57 66 79
75 66 56 47 42 36 31 29 25 19 18 18 19 20 22 25 20 6 8 9 12 11 10 11 14 16 19 18 17 41 37 31 38 38 38 41 45 42 51 50 46 60 64 70 74
72 58 48 43 39 35 30 25 20 19 19 19 21 24 45 14 6 11 11 14 12 10 9 11 14 16 14 16 18 16 26 27 33 37 37 43 46 45 57 52 48 56 63 66 70
69 59 45 39 35 30 26 21 18 18 20 22 24 35 45 14 12 11 10 12 11 10 11 9 10 11 13 16 14 15 18 21 37 40 41 42 52 46 44 53 50 49 49 59 62
65 53 45 39 34 26 21 18 17 18 22 24 28 50 28 7 10 7 6 7 8 11 12 10 11 13 15 14 16 20 20 24 36 41 38 35 45 43 48 53 57 51 48 50 58
60 50 42 36 30 24 19 19 17 19 29 27 42 40 32 13 16 6 6 9 8 7 7 7 11 14 15 19 26 26 26 25 24 38 40 40 33 34 51 54 65 60 51 47 56
59 48 39 33 29 23 19 18 30 30 36 45 50 30 18 12 13 9 7 8 7 7 8 11 20 20 25 26 31 26 26 23 25 23 29 40 40 41 50 50 58 66 55 53 53
54 43 35 29 24 21 20 34 38 35 43 24 16 20 19 15 15 10 8 7 7 8 10 10 18 24 22 22 21 21 23 24 20 16 18 23 31 45 47 53 56 58 62 56 55
46 38 31 26 23 22 33 41 31 29 39 28 31 28 23 20 24 19 8 9 8 10 10 12 17 17 19 19 19 19 19 18 18 16 26 29 29 42 47 44 50 49 51 54 56
41 35 30 24 24 38 40 33 33 29 38 32 28 29 24 24 26 23 7 8 8 10 11 14 11 9 12 12 13 14 17 16 16 12 15 22 30 39 46 47 48 50 42 44 48
32 30 26 23 40 40 40 34 29 27 42 27 24 22 23 19 17 13 7 8 10 10 11 12 10 10 10 11 13 14 10 12 12 9 13 20 38 26 40 52 49 50 48 43 45
28 27 25 27 48 45 32 29 24 24 19 19 17 14 17 16 11 9 8 8 10 10 12 12 8 8 9 9 9 10 8 8 8 10 20 19 29 27 34 41 47 44 46 41 49
24 25 24 39 50 31 32 27 24 30 16 16 14 18 18 15 14 10 8 7 8 9 10 11 8 8 8 7 8 7 7 9 18 22 17 18 27 27 32 34 36 41 40 35 48
20 29 33 35 42 35 31 33 28 28 18 16 13 14 13 13 13 12 12 10 12 13 13 11 11 9 7 8 7 7 11 15 13 15 15 18 24 23 20 29 29 32 34 34 46
28 31 36 32 30 34 31 39 33 23 27 16 15 15 14 13 12 13 12 14 10 11 17 14 15 10 8 8 8 9 11 15 12 15 14 18 15 15 22 26 26 27 34 37 46
37 41 48 37 29 37 41 44 26 33 21 20 16 18 16 15 15 14 14 14 11 12 13 16 14 10 8 8 8 9 10 10 14 17 15 15 17 28 26 23 25 29 30 46 43
46 47 43 35 28 36 46 45 44 28 22 14 16 14 16 15 17 18 16 11 12 11 10 11 13 10 8 7 8 8 8 10 15 12 12 16 17 28 18 27 26 26 25 36 43
53 51 41 38 31 47 36 48 35 26 20 19 16 17 15 15 16 16 17 15 15 10 11 12 12 10 7 9 9 10 10 11 13 16 16 16 18 19 25 22 22 24 23 28 46
64 55 42 36 44 66 50 40 28 25 22 26 16 17 16 17 16 14 18 16 21 22 11 12 14 14 12 9 9 8 9 11 14 12 19 18 16 11 17 20 26 23 23 24 26
69 73 43 29 48 47 41 35 29 26 25 19 19 18 19 20 24 18 19 16 31 32 33 20 19 18 15 12 12 11 9 10 13 16 15 15 15 9 19 27 26 26 25 30 24
72 58 44 47 50 41 46 39 31 23 22 19 20 20 21 22 22 24 23 18 32 34 48 36 41 21 20 16 18 20 20 14 13 17 15 15 10 9 13 26 26 27 26 27 28
70 57 42 44 37 36 34 33 31 31 22 23 23 26 28 29 30 31 28 33 30 44 36 36 41 39 33 30 33 30 30 30 20 17 14 14 13 11 32 24 29 27 27 26 28
53 49 52 49 50 37 35 32 32 30 26 27 24 21 24 28 23 23 29 34 34 38 41 47 45 45 38 36 36 33 30 27 22 14 15 14 15 34 46 32 30 30 25 24 26
60 56 50 46 49 42 40 32 30 28 26 23 26 24 24 20 22 19 27 34 34 38 45 47 46 48 45 44 38 35 26 32 30 28 19 32 35 46 50 50 50 28 35 33 28

GFSSW_925_rhum_291.txt.gz
RH
100 99 100 91 73 49 32 28 27 25 22 19 17 16 15 12 10 12 10 8 12 29 46 68 55 56 55 39 42 45 40 46 44 47 38 36 38 38 40 46 44 45 51 56 87
100 99 96 67 52 36 30 28 27 24 20 18 17 17 16 13 18 24 7 9 11 25 54 36 35 34 31 27 31 36 54 40 35 38 36 34 36 36 48 49 56 70 68 78 90
100 100 94 62 37 29 28 27 26 23 19 18 17 18 16 18 20 6 17 8 14 25 24 27 28 26 20 20 25 37 34 30 30 32 32 33 36 34 43 56 51 64 83 80 84
100 100 83 57 33 27 27 26 25 21 18 18 17 18 16 28 10 13 12 11 21 20 26 16 20 16 18 19 19 31 28 30 28 33 35 38 35 37 42 37 39 56 71 72 74
99 88 67 46 35 27 26 26 23 20 18 18 18 19 23 10 8 10 13 14 30 13 9 10 14 17 19 17 19 28 21 18 23 30 36 36 36 33 37 48 47 61 67 67 65
97 78 60 45 34 28 26 23 20 18 17 18 20 21 30 6 9 20 18 17 31 19 11 10 11 14 14 14 17 18 16 16 20 29 35 38 39 38 52 56 61 65 66 63 62
85 59 50 40 32 29 25 21 18 16 17 19 22 29 24 8 21 20 23 20 19 13 10 10 9 11 12 14 14 14 18 19 31 37 37 36 36 37 51 58 65 60 63 64 62
69 56 44 36 30 26 22 20 17 17 18 21 27 34 16 9 12 12 11 12 14 12 11 11 10 11 12 13 15 19 19 20 17 38 38 33 35 35 51 54 59 58 62 64 64
52 41 37 32 28 24 20 22 20 20 21 27 37 34 12 12 14 12 11 9 12 14 13 13 12 12 13 16 18 19 20 21 18 28 38 37 28 33 45 48 58 62 58 60 64
46 37 32 28 24 21 25 35 32 34 35 40 52 24 14 12 14 16 11 9 8 7 9 12 15 15 17 16 26 20 20 21 20 15 23 25 26 20 40 43 49 61 58 60 61
38 33 29 25 22 23 38 46 35 31 50 24 15 13 15 19 20 14 10 8 7 8 9 11 14 19 18 17 18 19 21 21 16 13 13 11 13 13 16 36 42 47 56 59 60
28 27 25 23 25 34 36 32 34 37 30 31 31 27 25 22 19 16 9 8 9 11 10 10 14 14 17 18 18 18 19 17 13 11 11 12 14 15 30 35 37 40 47 50 51
24 23 23 21 28 35 38 38 42 42 32 23 25 25 21 21 17 14 8 8 10 11 10 11 13 10 12 13 15 16 17 14 11 10 10 14 12 14 21 35 37 37 38 41 45
20 20 21 21 40 39 38 40 39 38 20 18 19 19 23 22 15 17 8 8 9 9 10 9 9 10 10 11 11 18 10 10 9 9 10 11 11 18 19 21 29 32 36 39 42
21 19 19 22 29 40 36 37 33 27 18 14 16 17 22 13 10 9 9 8 9 9 9 8 10 10 10 10 9 11 8 8 9 9 11 13 15 10 22 14 10 12 30 33 40
20 19 20 32 36 32 35 33 27 16 24 16 16 17 17 14 12 10 9 8 9 10 10 9 9 8 8 8 9 8 8 10 12 11 11 12 16 10 11 17 13 12 23 33 36
20 30 32 34 32 35 34 25 18 22 18 18 16 15 14 12 12 10 10 10 10 12 13 11 9 8 8 8 8 8 8 12 14 12 11 15 19 11 9 11 14 16 21 32 39
43 35 41 35 34 34 30 22 28 25 24 20 15 14 15 13 12 12 13 12 12 10 12 12 10 9 8 8 8 9 7 10 17 14 10 16 11 7 9 10 19 22 22 26 33
44 42 48 47 36 36 24 15 22 25 23 23 14 15 15 13 13 14 14 13 11 10 12 13 12 9 8 8 7 10 10 7 9 12 11 10 11 9 13 11 12 16 18 26 31
48 51 52 39 37 32 21 22 27 26 23 22 19 16 18 15 14 14 16 13 16 10 10 11 13 9 8 8 8 8 8 9 11 16 14 12 15 10 14 12 12 12 10 16 32
52 40 48 39 34 25 18 22 28 24 25 24 21 18 16 20 16 14 16 14 20 18 11 10 10 11 9 9 9 9 9 11 10 11 12 12 10 11 15 14 13 10 12 15 16
47 41 47 38 32 47 35 35 32 26 23 24 23 19 18 18 20 18 18 18 24 26 21 11 10 13 11 10 9 9 8 9 11 17 14 14 10 11 18 23 22 20 19 22 24
49 48 43 39 39 40 37 32 31 27 24 22 20 17 17 20 23 18 19 18 24 30 31 15 15 19 13 10 11 10 9 9 9 10 19 12 10 10 13 22 27 31 30 28 26
49 41 39 40 42 37 34 29 27 23 24 23 24 22 22 24 24 25 27 24 26 34 45 22 18 20 21 18 21 20 18 12 10 13 14 12 12 11 14 25 26 26 30 29 27
44 45 42 40 37 33 32 33 29 27 23 23 23 24 27 31 28 27 24 23 25 40 34 27 30 27 25 24 27 24 23 23 19 18 17 14 15 13 16 30 32 32 30 36 33
40 39 40 39 40 37 35 31 30 27 26 24 25 23 23 26 25 24 21 26 30 29 30 32 33 40 34 29 30 32 27 26 24 24 16 16 20 14 18 32 31 32 36 41 42
70 64 39 44 37 33 30 32 29 27 24 24 25 26 26 23 22 21 21 20 20 28 33 38 31 38 36 30 32 30 25 22 22 20 16 22 18 31 27 32 34 32 36 43 41